Weather reports worldwide

Advertisment
Strasbourg, France (7190): temperature & dewpoint: 07.12.2018 10:00:00 - 13.12.2018 10:00:00 (CET)Strasbourg, France (7190): temperature 5cm: 07.12.2018 10:00:00 - 13.12.2018 10:00:00 (CET)Strasbourg, France (7190): temperature -20cm & temperature -100cm: 07.12.2018 10:00:00 - 13.12.2018 10:00:00 (CET)Strasbourg, France (7190): wind speed & gusts: 07.12.2018 10:00:00 - 13.12.2018 10:00:00 (CET)Strasbourg, France (7190): wind direction: 07.12.2018 10:00:00 - 13.12.2018 10:00:00 (CET)Strasbourg, France (7190): reduced air pressure: 07.12.2018 10:00:00 - 13.12.2018 10:00:00 (CET)Strasbourg, France (7190): visibility: 07.12.2018 10:00:00 - 13.12.2018 10:00:00 (CET)Strasbourg, France (7190): sunshine duration: 07.12.2018 10:00:00 - 13.12.2018 10:00:00 (CET)Strasbourg, France (7190): precipitation: 07.12.2018 10:00:00 - 13.12.2018 10:00:00 (CET)
Date & Time tt [°C] td [°C] tt 5cm [°C] tt -20cm [°C] tt -100cm [°C] ff [km/h] ff [kn] fx [km/h] fx [kn] dd ppp [hPa] vv [km] sd [min] rr [mm]
13.12.2018 10:00:00 -0,4 -2,3 -1,2 3,3 9,9 16 9 27 15 NE 1017,4 11 2 0,0
13.12.2018 09:00:00 -0,8 -2,7 -2,1 3,4 9,9 18 10 28 15 NNE 1017,5 10 12 0,0
13.12.2018 08:00:00 -1,2 -2,8 -2,2 3,4 9,9 17 9 25 13 NNE 1017,6 12 0 0,0
13.12.2018 07:00:00 -0,8 -2,5 -1,7 3,5 9,9 18 10 28 15 NNE 1017,8 15 0 0,0
13.12.2018 06:00:00 -0,7 -2,4 -1,6 3,6 9,9 16 9 28 15 NNE 1018,0 16 0 0,0
13.12.2018 05:00:00 -0,3 -2,2 -1,2 3,7 9,9 19 10 27 15 NE 1018,6 17 0 0,0
13.12.2018 04:00:00 -0,1 -1,8 -1,2 3,8 9,9 18 10 24 13 NNE 1019,1 17 0 0,0
13.12.2018 03:00:00 0,2 -1,4 -0,9 3,9 10,0 13 7 21 11 NE 1019,7 17 0 0,0
13.12.2018 02:00:00 0,7 -0,8 -0,5 4,0 10,0 14 8 23 12 NNE 1020,0 15 0 0,0
13.12.2018 01:00:00 0,8 -0,5 -0,5 4,0 10,0 14 8 22 12 NNE 1020,2 14 0 0,0
13.12.2018 00:00:00 0,9 -0,4 -0,3 4,0 10,0 11 6 17 9 NNE 1020,7 12 0 0,0
12.12.2018 23:00:00 1,3 0,1 0,1 4,1 10,0 10 5 16 9 NNE 1020,9 8 0 0,0
12.12.2018 22:00:00 1,9 0,4 1,2 4,1 10,0 9 5 16 9 NNE 1021,4 8 0 0,0
12.12.2018 21:00:00 2,0 0,5 1,1 4,2 10,0 11 6 19 10 NNE 1021,8 9 0 0,0
12.12.2018 20:00:00 1,6 0,6 0,0 4,3 10,0 11 6 16 9 N 1022,2 8 0 0,0
12.12.2018 19:00:00 0,9 0,3 -0,7 4,3 10,1 9 5 16 9 NNW 1022,3 6 0 0,0
12.12.2018 18:00:00 0,5 -0,1 -1,0 4,4 10,1 7 4 14 7 WNW 1022,6 2,2 0 0,0
12.12.2018 17:00:00 0,6 -0,1 -0,4 4,3 10,1 8 4 11 6 WNW 1022,8 3,4 2 0,0
12.12.2018 16:00:00 1,6 0,4 0,8 4,2 10,1 4 2 22 12 SW 1022,9 5 0 0,0
12.12.2018 15:00:00 2,0 0,7 2,4 4,1 10,1 17 9 24 13 NNE 1023,2 5 0 0,0
12.12.2018 14:00:00 1,3 0,7 1,9 4,0 10,1 5 3 10 6 ENE 1023,9 2,6 3 0,0
12.12.2018 13:00:00 0,6 0,2 1,0 4,0 10,1 5 3 9 5 N 1024,5 1,9 0 0,0
12.12.2018 12:00:00 0,2 -0,2 1,0 4,0 10,1 5 3 14 7 NW 1025,2 1,8 0 0,0
12.12.2018 11:00:00 -0,1 -0,5 -0,5 4,1 10,1 8 4 11 6 NNE 1025,6 3,9 0 0,0
12.12.2018 10:00:00 -1,1 -1,5 -2,1 4,2 10,2 0 0 6 3 N 1025,8 1,9 0 0,0
12.12.2018 09:00:00 -2,5 -2,9 -4,5 4,3 10,2 2 1 6 3 ENE 1025,7 0,3 2 0,0
12.12.2018 08:00:00 -2,9 -3,3 -4,7 4,4 10,2 6 3 7 4 NE 1025,6 0,1 0 0,0
12.12.2018 07:00:00 -3,4 -3,9 -5,0 4,6 10,2 5 3 6 4 E 1025,2 0,2 0 0,0
12.12.2018 06:00:00 -2,6 -3,0 -4,7 4,7 10,2 3 2 12 6 E 1025,2 0,1 0 0,0
12.12.2018 05:00:00 -2,6 -3,2 -4,1 4,8 10,2 5 3 6 4 SW 1025,3 0,2 0 0,0
12.12.2018 04:00:00 -1,5 -1,9 -3,8 4,9 10,2 2 1 10 5 W 1025,3 0,2 0 0,0
12.12.2018 03:00:00 -1,9 -2,9 -3,3 5,0 10,2 9 5 10 5 SW 1025,4 0,6 0 0,0
12.12.2018 02:00:00 -0,5 -1,2 -2,1 5,1 10,3 8 4 10 6 SW 1025,4 1,6 0 0,0
12.12.2018 01:00:00 0,2 -0,5 -0,8 5,1 10,2 3 1 11 6 SSE 1025,6 3,9 0 0,0
12.12.2018 00:00:00 1,0 0,1 -0,6 5,2 10,3 6 4 10 5 NE 1025,5 8 0 0,0
11.12.2018 23:00:00 1,2 0,2 0,0 5,3 10,3 7 4 15 8 N 1025,5 7 0 0,0
11.12.2018 22:00:00 1,3 0,6 0,4 5,4 10,3 8 5 11 6 NNE 1025,7 4,7 0 0,0
11.12.2018 21:00:00 1,8 0,8 1,0 5,4 10,3 4 2 9 5 N 1025,7 6 0 0,0
11.12.2018 20:00:00 1,8 0,8 0,5 5,6 10,3 7 4 9 5 NE 1025,9 8 0 0,0
11.12.2018 19:00:00 1,5 0,6 -0,9 5,6 10,3 8 4 9 5 NE 1026,0 8 0 0,0
11.12.2018 18:00:00 1,8 0,5 -0,4 5,6 10,3 4 2 18 10 NE 1025,6 9 0 0,0
11.12.2018 17:00:00 3,2 1,1 1,9 5,6 10,3 11 6 18 10 NNE 1025,4 12 4 0,0
11.12.2018 16:00:00 5,4 -0,9 5,4 5,4 10,3 10 6 21 12 NW 1024,9 53 51 0,0
11.12.2018 15:00:00 6,3 -0,7 6,7 5,3 10,3 17 9 24 13 NW 1025,0 56 29 0,0
11.12.2018 14:00:00 6,6 0,5 5,2 5,2 10,3 6 4 11 6 W 1025,2 41 5 0,0
11.12.2018 13:00:00 5,1 0,1 5,7 5,2 10,4 4 2 18 10 SW 1025,7 32 2 0,0
11.12.2018 12:00:00 5,6 0,4 7,0 5,2 10,4 11 6 16 9 WSW 1026,0 28 53 0,0
11.12.2018 11:00:00 3,1 0,5 2,7 5,3 10,4 8 4 9 5 WSW 1026,7 13 7 0,0
11.12.2018 10:00:00 0,8 -0,4 -0,2 5,4 10,4 4 2 8 4 WSW 1026,9 16 7 0,0
11.12.2018 09:00:00 -0,2 -0,9 -1,4 5,5 10,4 5 3 11 6 W 1026,5 11 0 0,0
11.12.2018 08:00:00 -0,3 -1,0 -1,7 5,7 10,4 9 5 11 6 S 1026,6 16 0 0,0
11.12.2018 07:00:00 0,3 -0,7 -0,7 5,8 10,4 6 3 9 5 SW 1026,4 14 0 0,0
11.12.2018 06:00:00 -0,1 -0,8 -3,0 6,0 10,4 3 1 7 4 SW 1026,5 14 0 0,0
11.12.2018 05:00:00 -0,6 -1,4 -2,8 6,1 10,4 6 3 11 6 S 1026,5 14 0 0,0
11.12.2018 04:00:00 -0,3 -1,7 -2,1 6,3 10,4 4 2 11 6 SW 1026,6 18 0 0,0
11.12.2018 03:00:00 0,3 -1,5 -1,4 6,4 10,4 4 2 10 5 SW 1026,5 25 0 0,0
11.12.2018 02:00:00 1,1 -0,2 -0,8 6,6 10,4 5 3 9 5 SSE 1026,3 28 0 0,0
11.12.2018 01:00:00 2,6 0,3 0,4 6,6 10,4 5 3 19 10 N 1026,1 46 0 0,0
11.12.2018 00:00:00 3,9 0,9 2,3 6,8 10,4 11 6 26 14 WNW 1025,9 41 0 0,0
10.12.2018 23:00:00 4,9 1,2 4,0 6,9 10,4 19 10 32 18 WNW 1025,5 47 0 0,0
10.12.2018 22:00:00 5,3 1,4 4,1 7,0 10,4 21 12 32 17 W 1025,2 53 0 0,0
10.12.2018 21:00:00 5,4 1,5 4,5 7,1 10,4 20 11 37 20 W 1025,3 56 0 0,0
10.12.2018 20:00:00 5,3 1,2 3,1 7,2 10,4 6 3 19 10 WSW 1025,5 56 0 0,0
10.12.2018 19:00:00 5,1 1,0 3,3 7,3 10,5 11 6 24 13 W 1025,1 55 0 0,0
10.12.2018 18:00:00 5,0 1,3 3,8 7,4 10,4 15 8 29 16 W 1024,7 59 0 0,0
10.12.2018 17:00:00 5,6 1,9 4,8 7,4 10,4 15 8 33 18 W 1024,5 57 4 0,0
10.12.2018 16:00:00 6,5 2,8 6,1 7,3 10,4 16 8 31 17 W 1024,5 56 44 -
10.12.2018 15:00:00 5,9 3,1 5,6 7,3 10,4 16 9 36 19 WSW 1024,3 53 3 0,0
10.12.2018 14:00:00 6,2 3,4 4,7 7,3 10,4 19 11 37 20 NW 1024,8 18 10 0,0
10.12.2018 13:00:00 6,3 4,0 5,6 7,2 10,4 16 8 32 17 N 1024,9 9 1 0,0
10.12.2018 12:00:00 8,4 2,4 7,4 7,2 10,4 13 7 38 21 WNW 1025,2 44 15 0,0
10.12.2018 11:00:00 7,2 2,5 6,9 7,3 10,4 14 8 28 15 WNW 1025,6 55 2 0,0
10.12.2018 10:00:00 7,1 1,8 5,9 7,3 10,4 14 8 25 13 WNW 1025,1 49 23 0,0
10.12.2018 09:00:00 6,1 2,0 5,3 7,4 10,4 13 7 24 13 WNW 1024,5 59 0 0,0
10.12.2018 08:00:00 6,1 2,4 5,0 7,5 10,4 9 5 20 11 W 1024,0 60 0 0,0
10.12.2018 07:00:00 5,7 1,8 4,3 7,5 10,4 8 5 24 13 W 1023,7 60 0 0,0
10.12.2018 06:00:00 6,0 1,9 4,3 7,6 10,4 13 7 29 15 W 1023,0 58 0 0,0
10.12.2018 05:00:00 6,6 2,9 5,0 7,7 10,4 16 9 31 17 NW 1022,6 8 0 0,0
10.12.2018 04:00:00 6,7 1,6 5,5 7,8 10,4 6 3 24 13 W 1022,2 60 0 0,0
10.12.2018 03:00:00 6,7 1,4 5,6 7,9 10,4 17 9 40 22 W 1021,7 60 0 0,0
10.12.2018 02:00:00 6,7 1,8 5,9 8,0 10,5 25 14 41 22 W 1020,8 60 0 0,0
10.12.2018 01:00:00 7,0 1,9 6,1 8,0 10,4 29 16 52 28 W 1019,9 60 0 0,0
10.12.2018 00:00:00 7,8 2,5 7,4 8,0 10,4 28 15 45 25 WNW 1019,0 60 0 0,0
09.12.2018 23:00:00 8,1 3,2 7,3 8,1 10,5 24 13 48 26 WNW 1017,9 60 0 0,0
09.12.2018 22:00:00 8,2 3,4 6,7 8,2 10,4 27 15 39 21 WNW 1016,8 60 0 0,0
09.12.2018 21:00:00 7,7 3,4 6,9 8,2 10,5 20 11 42 23 WNW 1015,9 60 0 0,0
09.12.2018 20:00:00 8,8 4,6 8,4 8,3 10,5 20 11 43 23 WNW 1014,5 60 0 0,0
09.12.2018 19:00:00 8,9 4,5 8,0 8,3 10,5 17 9 48 26 W 1012,7 60 0 0,0
09.12.2018 18:00:00 8,2 4,6 7,2 8,3 10,4 23 13 44 24 W 1011,3 60 0 0,0
09.12.2018 17:00:00 8,6 5,3 7,1 8,2 10,4 26 14 54 29 W 1009,9 49 4 0,0
09.12.2018 16:00:00 9,5 4,9 8,4 8,2 10,5 31 17 52 28 WSW 1008,6 59 25 0,0
09.12.2018 15:00:00 9,2 4,8 7,1 8,2 10,4 28 15 56 30 WSW 1007,7 28 6 0,0
09.12.2018 14:00:00 8,9 4,7 7,4 8,1 10,4 36 19 67 36 WSW 1007,6 23 7 0,0
09.12.2018 13:00:00 9,2 5,2 8,0 8,1 10,4 35 19 62 34 WSW 1007,7 16 16 0,0
09.12.2018 12:00:00 9,1 4,5 9,0 8,1 10,5 39 21 69 37 WSW 1008,2 45 14 0,0
09.12.2018 11:00:00 9,6 4,4 8,0 8,1 10,4 35 19 74 40 W 1007,9 26 12 0,0
09.12.2018 10:00:00 9,9 3,4 8,9 8,1 10,5 48 26 69 37 W 1007,6 13 8 0,0
09.12.2018 09:00:00 9,3 3,3 8,4 8,2 10,5 38 20 65 35 W 1007,3 35 0 0,0
09.12.2018 08:00:00 9,0 3,4 7,3 8,2 10,5 32 17 74 40 W 1006,7 43 0 0,0
09.12.2018 07:00:00 8,9 4,5 6,9 8,2 10,4 40 21 78 42 W 1006,0 39 0 0,0
09.12.2018 06:00:00 9,1 4,1 6,8 8,3 10,4 44 24 66 35 W 1005,3 43 0 0,0
09.12.2018 05:00:00 8,4 5,0 6,8 8,3 10,4 44 24 91 49 WSW 1005,0 3,3 0 0,0
09.12.2018 04:00:00 10,9 5,4 7,5 8,3 10,4 41 22 68 37 W 1004,5 41 0 0,0
09.12.2018 03:00:00 8,8 5,5 7,3 8,3 10,4 33 18 52 28 SW 1004,6 34 0 0,0
09.12.2018 02:00:00 9,6 5,0 7,3 8,3 10,4 41 22 90 49 W 1005,6 10 0 0,0
09.12.2018 01:00:00 11,5 5,8 8,4 8,3 10,4 39 21 82 44 SW 1005,8 60 0 0,0
09.12.2018 00:00:00 9,5 6,8 8,1 8,3 10,4 26 14 50 27 S 1006,2 60 0 0,0
08.12.2018 23:00:00 9,1 6,2 7,9 8,3 10,4 32 17 49 27 S 1006,7 43 0 0,0
08.12.2018 22:00:00 9,4 5,8 7,4 8,3 10,4 28 15 47 25 S 1008,3 56 0 0,0
08.12.2018 21:00:00 8,2 6,0 7,1 8,3 10,4 25 14 48 26 S 1010,0 60 0 0,0
08.12.2018 20:00:00 8,1 5,6 6,9 8,4 10,4 28 15 48 26 S 1011,2 55 0 0,0
08.12.2018 19:00:00 7,9 5,7 6,9 8,4 10,4 26 14 40 21 S 1012,5 20 0 0,0
08.12.2018 18:00:00 8,4 5,0 7,2 8,4 10,4 22 12 34 18 S 1013,5 55 0 0,0
08.12.2018 17:00:00 8,2 5,3 7,2 8,4 10,4 22 12 49 27 SSW 1014,4 29 0 0,0
08.12.2018 16:00:00 8,4 5,1 7,8 8,4 10,4 27 15 41 22 SSW 1014,4 49 0 0,0
08.12.2018 15:00:00 8,8 5,2 7,2 8,3 10,4 28 15 43 23 SW 1014,2 42 0 0,0
08.12.2018 14:00:00 8,6 5,2 8,3 8,3 10,4 29 16 54 29 SSW 1014,4 46 0 0,0
08.12.2018 13:00:00 9,2 4,0 8,5 8,2 10,4 34 18 52 28 SW 1014,6 55 0 0,0
08.12.2018 12:00:00 8,2 5,3 7,2 8,3 10,4 26 14 41 22 SSW 1014,8 50 0 0,0
08.12.2018 11:00:00 7,6 4,5 6,8 8,3 10,4 22 12 40 21 SSW 1015,4 39 0 0,0
08.12.2018 10:00:00 6,9 3,9 6,4 8,4 10,4 21 12 45 24 S 1015,4 46 0 0,0
08.12.2018 09:00:00 6,4 3,4 6,0 8,5 10,4 22 12 36 19 S 1015,9 58 0 0,0
08.12.2018 08:00:00 6,9 3,1 6,2 8,6 10,4 23 12 39 21 SSW 1016,0 45 0 0,0
08.12.2018 07:00:00 7,0 2,5 5,8 8,7 10,4 22 12 37 20 SSW 1016,0 56 0 0,0
08.12.2018 06:00:00 6,2 2,6 4,5 8,8 10,4 22 12 50 27 SSW 1016,2 58 0 0,0
08.12.2018 05:00:00 6,0 2,3 5,2 8,9 10,4 22 12 36 19 SW 1015,9 60 0 0,0
08.12.2018 04:00:00 6,7 2,9 5,7 9,0 10,4 22 12 38 21 SW 1016,0 34 0 0,0
08.12.2018 03:00:00 7,6 2,7 7,1 9,1 10,4 15 8 34 19 SSW 1015,9 60 0 0,0
08.12.2018 02:00:00 7,4 2,7 6,8 9,2 10,4 13 7 46 25 SW 1015,4 55 0 0,0
08.12.2018 01:00:00 8,2 2,2 7,5 9,3 10,3 26 14 61 33 W 1014,9 60 0 0,0
08.12.2018 00:00:00 8,2 3,0 7,6 9,4 10,4 29 15 50 27 WSW 1014,0 60 0 0,0
07.12.2018 23:00:00 8,1 3,4 7,7 9,5 10,3 33 18 53 29 WSW 1012,8 60 0 0,0
07.12.2018 22:00:00 9,1 3,5 7,1 9,5 10,3 29 16 47 26 W 1011,9 54 0 0,0
07.12.2018 21:00:00 8,6 5,2 7,1 9,6 10,3 24 13 71 38 W 1010,4 17 0 1,0
07.12.2018 20:00:00 11,6 7,5 10,2 9,6 10,3 36 20 56 31 SW 1007,9 18 0 0,0
07.12.2018 19:00:00 11,3 6,8 9,8 9,6 10,3 21 12 33 18 S 1007,3 47 0 0,0
07.12.2018 18:00:00 11,5 6,4 10,4 9,6 10,3 21 11 54 29 SSW 1007,8 60 0 0,0
07.12.2018 17:00:00 12,2 5,4 11,5 9,6 10,3 29 16 63 34 SSW 1008,9 60 0 0,0
07.12.2018 16:00:00 12,3 5,7 12,0 9,6 10,3 31 17 54 29 SSW 1010,3 36 15 0,0
07.12.2018 15:00:00 12,6 5,5 12,4 9,6 10,3 38 21 61 33 SW 1011,0 39 9 0,0
07.12.2018 14:00:00 12,7 6,3 11,9 9,5 10,3 40 21 61 33 SW 1012,4 57 0 0,0
07.12.2018 13:00:00 12,0 7,9 11,7 9,5 10,3 16 9 46 25 SSW 1014,3 60 0 0,0
07.12.2018 12:00:00 11,8 8,8 11,7 9,5 10,3 16 9 31 17 S 1015,6 59 0 0,0
07.12.2018 11:00:00 11,5 8,7 11,5 9,5 10,3 19 10 37 20 S 1016,5 60 0 0,0
07.12.2018 10:00:00 11,5 8,9 11,2 9,4 10,3 14 8 39 21 S 1016,9 60 0 0,0

tt = temperature
td = dewpoint
tt 5cm = temperature 5cm
tt -20cm = temperature -20cm
tt -100cm = temperature -100cm
ff = wind speed
fx = gusts
dd = wind direction
ppp = reduced air pressure
vv = visibility
sd = sunshine duration
rr = precipitation

Next stations